Time,TemperatureF,DewpointF,PressureIn,WindDirection,WindDirectionDegrees,WindSpeedMPH,WindSpeedGustMPH,Humidity,HourlyPrecipIn,Conditions,Clouds,dailyrainin,SoftwareType,DateUTC
2013-05-02 00:00:00,27.0,-99.9,-100.00,NE,41,5.0,8.0,-999,-99.99,,,0.00,,2013-05-02 07:00:00,
2013-05-02 01:00:00,27.0,-99.9,-100.00,NE,36,6.0,10.0,-999,-99.99,,,0.00,,2013-05-02 08:00:00,
2013-05-02 02:00:00,25.0,-99.9,-100.00,North,-999,-999.0,-999.0,-999,-99.99,,,0.00,,2013-05-02 09:00:00,
2013-05-02 03:00:00,24.0,-99.9,-100.00,NNE,31,8.0,9.0,-999,-99.99,,,0.00,,2013-05-02 10:00:00,
2013-05-02 04:00:00,23.0,-99.9,-100.00,NNE,29,7.0,9.0,-999,-99.99,,,0.00,,2013-05-02 11:00:00,
2013-05-02 05:00:00,23.0,-99.9,-100.00,NNE,29,8.0,11.0,-999,-99.99,,,0.00,,2013-05-02 12:00:00,
2013-05-02 06:00:00,21.0,-99.9,-100.00,NNE,28,9.0,11.0,-999,-99.99,,,0.00,,2013-05-02 13:00:00,
2013-05-02 07:00:00,29.0,-99.9,-100.00,NNE,29,8.0,10.0,-999,-99.99,,,0.00,,2013-05-02 14:00:00,
2013-05-02 08:00:00,35.0,-99.9,-100.00,NNE,25,6.0,9.0,-999,-99.99,,,0.00,,2013-05-02 15:00:00,
2013-05-02 09:00:00,42.0,-99.9,-100.00,ENE,57,4.0,10.0,-999,-99.99,,,0.01,,2013-05-02 16:00:00,
2013-05-02 10:00:00,43.0,-99.9,-100.00,SSW,197,8.0,16.0,-999,-99.99,,,0.00,,2013-05-02 17:00:00,
2013-05-02 11:00:00,44.0,-99.9,-100.00,SSW,194,10.0,15.0,-999,-99.99,,,0.00,,2013-05-02 18:00:00,
2013-05-02 12:00:00,47.0,-99.9,-100.00,South,184,10.0,15.0,-999,-99.99,,,0.00,,2013-05-02 19:00:00,
2013-05-02 13:00:00,48.0,-99.9,-100.00,South,170,9.0,16.0,-999,-99.99,,,0.00,,2013-05-02 20:00:00,
2013-05-02 14:00:00,50.0,-99.9,-100.00,SSE,166,8.0,13.0,-999,-99.99,,,-99.99,,2013-05-02 21:00:00,
2013-05-02 14:43:00,49.0,-99.9,-100.00,SSE,166,8.0,13.0,-999,-99.99,,,-99.99,,2013-05-02 21:43:00,
2013-05-02 14:53:00,50.0,-99.9,-100.00,SSE,166,8.0,13.0,-999,-99.99,,,-99.99,,2013-05-02 21:53:00,
2013-05-02 15:00:00,51.0,-99.9,-100.00,South,171,7.0,12.0,-999,-99.99,,,0.00,,2013-05-02 22:00:00,
2013-05-02 16:00:00,51.0,-99.9,-100.00,SSW,194,6.0,11.0,-999,-99.99,,,0.00,,2013-05-02 23:00:00,
2013-05-02 17:00:00,54.0,-99.9,-100.00,SSW,208,6.0,11.0,-999,-99.99,,,0.00,,2013-05-03 00:00:00,
2013-05-02 18:00:00,50.0,-99.9,-100.00,SSW,209,6.0,9.0,-999,-99.99,,,0.00,,2013-05-03 01:00:00,
2013-05-02 18:52:00,50.0,-99.9,-100.00,SSW,209,6.0,9.0,-999,-99.99,,,0.00,,2013-05-03 01:52:00,
2013-05-02 19:00:00,49.0,-99.9,-100.00,SSW,203,6.0,9.0,-999,-99.99,,,0.00,,2013-05-03 02:00:00,
2013-05-02 20:00:00,43.0,-99.9,-100.00,South,185,2.0,7.0,-999,-99.99,,,0.00,,2013-05-03 03:00:00,
2013-05-02 21:00:00,41.0,-99.9,-100.00,East,99,3.0,6.0,-999,-99.99,,,0.00,,2013-05-03 04:00:00,
2013-05-02 22:00:00,41.0,-99.9,-100.00,ENE,66,4.0,7.0,-999,-99.99,,,0.00,,2013-05-03 05:00:00,
2013-05-02 22:42:00,40.0,-99.9,-100.00,ENE,66,4.0,7.0,-999,-99.99,,,0.00,,2013-05-03 05:42:00,
2013-05-02 22:52:00,41.0,-99.9,-100.00,ENE,66,4.0,7.0,-999,-99.99,,,0.00,,2013-05-03 05:52:00,
2013-05-02 23:00:00,41.0,-99.9,-100.00,ENE,65,2.0,6.0,-999,-99.99,,,-99.99,,2013-05-03 06:00:00,
2013-05-02 23:42:00,41.0,-99.9,-100.00,ENE,65,2.0,6.0,-999,-99.99,,,-99.99,,2013-05-03 06:42:00,
2013-05-02 23:52:00,41.0,-99.9,-100.00,ENE,65,2.0,6.0,-999,-99.99,,,-99.99,,2013-05-03 06:52:00,